Mount Holly, NJ

10:31 PM EST on December 11, 2019 (GMT -0500)
South Jersey Regional

Weather History for KVAY - September, 2019

Change the Weather History Date:

Thursday, September 26, 2019

  Actual Average (KPNE) Record (KPNE)
Temperature  
Mean Temperature 70 °F -  
Max Temperature 87 °F 71 °F 91 °F (2007)
Min Temperature 54 °F 51 °F 44 °F (2001)
Cooling Degree Days 6    
Growing Degree Days 20 (Base 50)    
Moisture  
Dew Point 59 °F    
Average Humidity 83    
Maximum Humidity 97    
Minimum Humidity 51    
Precipitation  
Precipitation 0.00 in - - ()
Sea Level Pressure  
Sea Level Pressure 29.85 in    
Wind  
Wind Speed 2 mph (West)    
Max Wind Speed 16 mph    
Max Gust Speed 29 mph    
Visibility 8 miles    
Events Fog , Rain    
Averages and records for this station are not official NWS values.
T = Trace of Precipitation, MM = Missing Value Source: NWS Daily Summary

Daily Weather History Graph

Daily Weather History Graph

Search for Another Location

Airport or City:

Astronomy

Sep. 26, 2019 Rise Set
Actual Time 6:50 AM EDT 6:50 PM EDT
Civil Twilight 6:23 AM EDT 7:17 PM EDT
Nautical Twilight 5:52 AM EDT 7:48 PM EDT
Astronomical Twilight 5:20 AM EDT 8:20 PM EDT
Moon 3:54 AM EDT (9/26) 6:01 PM EDT (9/26)
Length of Visible Light 12h 53m
Length of Day
11h 59m
Waning Crescent, 7% of the Moon is Illuminated
Sep 26
Waning Crescent
Sep 28
New
Oct 5
First Quarter
Oct 13
Full
Oct 21
Last Quarter

Hourly Weather History & Observations

Time (EDT) Temp. Heat Index Dew Point Humidity Pressure Visibility Wind Dir Wind Speed Gust Speed Precip Events Conditions
12:54 AM 55.9 °F - 53.1 °F 90% 29.88 in 10.0 mi Calm Calm - N/A   Clear
1:54 AM 55.9 °F - 53.1 °F 90% 29.88 in 10.0 mi Calm Calm - N/A   Clear
2:54 AM 55.9 °F - 53.1 °F 90% 29.86 in 10.0 mi Calm Calm - N/A   Clear
3:54 AM 55.0 °F - 53.1 °F 93% 29.85 in 9.0 mi Calm Calm - N/A   Unknown
4:54 AM 54.0 °F - 52.0 °F 93% 29.84 in 10.0 mi Calm Calm - N/A   Clear
5:24 AM 54.0 °F - 53.1 °F 97% 29.84 in 1.5 mi Calm Calm - N/A   Clear
5:34 AM 54.0 °F - 52.0 °F 93% 29.85 in 4.0 mi Calm Calm - N/A   Clear
5:46 AM 55.0 °F - 53.1 °F 93% 29.84 in 1.8 mi Calm Calm - N/A   Clear
5:54 AM 55.0 °F - 53.1 °F 93% 29.84 in 1.8 mi Calm Calm - N/A   Clear
5:56 AM 55.0 °F - 53.1 °F 93% 29.84 in 3.0 mi Calm Calm - N/A   Clear
6:54 AM 54.0 °F - 53.1 °F 97% 29.83 in 6.0 mi Calm Calm - N/A   Clear
7:54 AM 59.0 °F - 57.0 °F 93% 29.83 in 10.0 mi Calm Calm - N/A   Clear
8:54 AM 68.0 °F - 63.0 °F 84% 29.82 in 10.0 mi Variable 3.5 mph - N/A   Clear
9:54 AM 73.0 °F - 66.0 °F 79% 29.83 in 10.0 mi Variable 5.8 mph - N/A   Clear
10:54 AM 78.1 °F - 66.0 °F 66% 29.81 in 10.0 mi Variable 4.6 mph - N/A   Clear
11:54 AM 79.0 °F - 66.9 °F 66% 29.79 in 10.0 mi SSW 4.6 mph - N/A   Clear
12:54 PM 82.0 °F 84.5 °F 66.9 °F 60% 29.75 in 10.0 mi South 5.8 mph - N/A   Clear
1:54 PM 87.1 °F 89.9 °F 66.9 °F 51% 29.74 in 10.0 mi SSW 8.1 mph - N/A   Partly Cloudy
2:54 PM 84.0 °F 85.4 °F 64.0 °F 51% 29.73 in 10.0 mi WSW 8.1 mph - N/A   Overcast
3:54 PM 81.0 °F 82.7 °F 64.9 °F 58% 29.73 in 10.0 mi WNW 4.6 mph - 0.00 in Rain Light Rain
4:54 PM 73.9 °F - 61.0 °F 64% 29.78 in 10.0 mi NNW 16.1 mph 28.8 mph 0.00 in   Mostly Cloudy
5:54 PM 71.1 °F - 61.0 °F 70% 29.81 in 10.0 mi NW 6.9 mph - N/A   Overcast
6:54 PM 68.0 °F - 61.0 °F 78% 29.82 in 10.0 mi Calm Calm - N/A   Mostly Cloudy
7:54 PM 66.9 °F - 61.0 °F 81% 29.87 in 10.0 mi NW 4.6 mph - N/A   Scattered Clouds
8:54 PM 66.9 °F - 61.0 °F 81% 29.91 in 10.0 mi Calm Calm - N/A   Clear
9:54 PM 62.1 °F - 60.1 °F 93% 29.94 in 10.0 mi Calm Calm - N/A   Clear
10:54 PM 60.1 °F - 57.9 °F 93% 29.96 in 5.0 mi Calm Calm - N/A   Clear
11:04 PM 59.0 °F - 57.9 °F 96% 29.96 in 2.5 mi Calm Calm - N/A   Clear
11:11 PM 59.0 °F - 57.0 °F 93% 29.97 in 8.0 mi Calm Calm - N/A   Clear
11:28 PM 59.0 °F - 57.0 °F 93% 29.96 in 0.2 mi Calm Calm - N/A Fog Fog
11:54 PM 57.9 °F - 55.9 °F 93% 29.96 in 0.5 mi Calm Calm - N/A Fog Fog